TimeHST,TemperatureF,Dew PointF,Humidity,Sea Level PressureIn,VisibilityMPH,Wind Direction,Wind SpeedMPH,Gust SpeedMPH,PrecipitationIn,Events,Conditions,WindDirDegrees,DateUTC
12:26 AM,75.2,69.8,83,29.93,10.0,SE,9.2,-,N/A,,Overcast,140,2012-10-08 10:26:00
12:40 AM,75.2,69.8,83,29.93,10.0,SE,11.5,-,N/A,,Overcast,130,2012-10-08 10:40:00
12:54 AM,75.9,70.0,82,29.93,10.0,SE,10.4,-,N/A,,Overcast,140,2012-10-08 10:54:00
1:54 AM,75.9,70.0,82,29.92,10.0,SSE,9.2,-,N/A,,Overcast,150,2012-10-08 11:54:00
2:54 AM,75.0,70.0,84,29.92,10.0,SE,8.1,-,N/A,,Scattered Clouds,140,2012-10-08 12:54:00
3:02 AM,75.2,69.8,83,29.91,10.0,SE,10.4,-,N/A,,Mostly Cloudy,140,2012-10-08 13:02:00
3:54 AM,75.0,70.0,84,29.91,10.0,SE,8.1,-,N/A,,Mostly Cloudy,130,2012-10-08 13:54:00
4:54 AM,75.0,69.1,82,29.91,10.0,ESE,10.4,-,N/A,,Overcast,110,2012-10-08 14:54:00
5:54 AM,75.0,68.0,79,29.93,10.0,SE,9.2,-,N/A,,Mostly Cloudy,140,2012-10-08 15:54:00
5:56 AM,75.2,68.0,78,29.92,10.0,SE,8.1,-,N/A,,Scattered Clouds,140,2012-10-08 15:56:00
6:54 AM,73.0,68.0,84,29.94,10.0,ESE,3.5,-,N/A,,Scattered Clouds,120,2012-10-08 16:54:00
7:54 AM,77.0,70.0,79,29.95,10.0,ESE,11.5,-,N/A,,Scattered Clouds,120,2012-10-08 17:54:00
8:54 AM,79.0,70.0,74,29.96,9.0,SE,15.0,-,N/A,,Scattered Clouds,140,2012-10-08 18:54:00
9:54 AM,80.1,68.0,67,29.98,9.0,SSE,16.1,-,N/A,,Scattered Clouds,150,2012-10-08 19:54:00
10:54 AM,81.0,68.0,65,29.97,10.0,SSE,16.1,-,N/A,,Scattered Clouds,160,2012-10-08 20:54:00
11:54 AM,82.0,68.0,62,29.96,10.0,South,13.8,-,N/A,,Scattered Clouds,170,2012-10-08 21:54:00
12:54 PM,82.0,68.0,62,29.95,9.0,South,15.0,-,N/A,,Scattered Clouds,180,2012-10-08 22:54:00
1:54 PM,82.0,66.9,60,29.94,9.0,SSE,12.7,18.4,N/A,,Scattered Clouds,160,2012-10-08 23:54:00
2:54 PM,82.9,66.9,58,29.93,9.0,South,12.7,19.6,N/A,,Scattered Clouds,180,2012-10-09 00:54:00
3:54 PM,81.0,66.0,60,29.93,10.0,SSE,15.0,-,N/A,,Clear,160,2012-10-09 01:54:00
4:54 PM,79.0,66.9,66,29.94,10.0,South,12.7,-,N/A,,Scattered Clouds,170,2012-10-09 02:54:00
5:54 PM,78.1,68.0,71,29.96,10.0,South,9.2,-,N/A,,Partly Cloudy,180,2012-10-09 03:54:00
6:54 PM,75.9,68.0,76,29.97,10.0,SSE,4.6,-,N/A,,Partly Cloudy,160,2012-10-09 04:54:00
7:54 PM,75.9,69.1,79,29.99,10.0,SSE,5.8,-,N/A,,Clear,160,2012-10-09 05:54:00
8:54 PM,75.0,69.1,82,30.01,10.0,South,6.9,-,N/A,,Partly Cloudy,170,2012-10-09 06:54:00
9:54 PM,75.0,68.0,79,30.01,10.0,SSE,4.6,-,N/A,,Clear,150,2012-10-09 07:54:00
10:54 PM,73.9,69.1,85,30.01,10.0,SSE,5.8,-,N/A,,Clear,160,2012-10-09 08:54:00
11:54 PM,75.0,69.1,82,30.00,10.0,South,10.4,-,N/A,,Clear,170,2012-10-09 09:54:00